Time,TemperatureF,DewpointF,PressureIn,WindDirection,WindDirectionDegrees,WindSpeedMPH,WindSpeedGustMPH,Humidity,HourlyPrecipIn,Conditions,Clouds,dailyrainin,SoftwareType,DateUTC
2013-01-28 00:02:00,67.8,62.8,29.70,SW,225,9.6,18.1,84,0.00,,,0.00,WUHU21623XXSP,2013-01-28 06:02:00,
2013-01-28 00:07:00,67.8,63.1,29.69,SSW,202,4.5,9.6,85,0.00,,,0.00,WUHU21623XXSP,2013-01-28 06:07:00,
2013-01-28 00:12:00,67.8,63.1,29.69,South,180,8.3,15.7,85,0.00,,,0.00,WUHU21623XXSP,2013-01-28 06:12:00,
2013-01-28 00:17:00,67.8,63.1,29.69,SSW,202,8.5,15.7,85,0.00,,,0.00,WUHU21623XXSP,2013-01-28 06:17:00,
2013-01-28 00:22:00,67.8,63.1,29.69,SSE,157,8.3,11.2,85,0.00,,,0.00,WUHU21623XXSP,2013-01-28 06:22:00,
2013-01-28 00:27:00,67.8,63.1,29.69,SW,225,9.2,9.2,85,0.00,,,0.00,WUHU21623XXSP,2013-01-28 06:27:00,
2013-01-28 00:32:00,67.8,63.1,29.70,SSW,202,7.4,9.2,85,0.00,,,0.00,WUHU21623XXSP,2013-01-28 06:32:00,
2013-01-28 00:37:00,67.6,63.0,29.69,South,180,5.6,13.4,85,0.00,,,0.00,WUHU21623XXSP,2013-01-28 06:37:00,
2013-01-28 00:42:00,67.8,63.1,29.70,South,180,7.2,13.4,85,0.00,,,0.00,WUHU21623XXSP,2013-01-28 06:42:00,
2013-01-28 00:47:00,67.6,63.0,29.70,South,180,14.3,14.3,85,0.00,,,0.00,WUHU21623XXSP,2013-01-28 06:47:00,
2013-01-28 00:52:00,67.6,63.0,29.70,SSW,202,14.8,17.4,85,0.00,,,0.00,WUHU21623XXSP,2013-01-28 06:52:00,
2013-01-28 00:57:00,67.6,63.0,29.70,SSW,202,6.0,17.7,85,0.00,,,0.00,WUHU21623XXSP,2013-01-28 06:57:00,
2013-01-28 01:02:00,67.6,63.0,29.70,SSE,157,16.6,17.7,85,0.00,,,0.00,WUHU21623XXSP,2013-01-28 07:02:00,
2013-01-28 01:07:00,67.6,63.0,29.71,SSE,157,5.8,16.6,85,0.00,,,0.00,WUHU21623XXSP,2013-01-28 07:07:00,
2013-01-28 01:12:00,67.8,63.1,29.70,SSE,157,8.9,11.9,85,0.00,,,0.00,WUHU21623XXSP,2013-01-28 07:12:00,
2013-01-28 01:17:00,67.6,63.0,29.71,South,180,9.4,11.9,85,0.00,,,0.00,WUHU21623XXSP,2013-01-28 07:17:00,
2013-01-28 01:22:00,67.6,63.0,29.71,South,180,13.4,13.4,85,0.00,,,0.00,WUHU21623XXSP,2013-01-28 07:22:00,
2013-01-28 01:27:00,67.6,63.0,29.71,SSW,202,8.9,14.3,85,0.00,,,0.00,WUHU21623XXSP,2013-01-28 07:27:00,
2013-01-28 01:32:00,67.6,63.0,29.71,South,180,4.7,14.3,85,0.00,,,0.00,WUHU21623XXSP,2013-01-28 07:32:00,
2013-01-28 01:37:00,67.6,63.0,29.71,WSW,247,5.4,9.2,85,0.00,,,0.00,WUHU21623XXSP,2013-01-28 07:37:00,
2013-01-28 01:42:00,67.6,63.0,29.71,SSW,202,5.1,9.2,85,0.00,,,0.00,WUHU21623XXSP,2013-01-28 07:42:00,
2013-01-28 01:47:00,67.6,63.0,29.72,SSE,157,4.0,8.9,85,0.00,,,0.00,WUHU21623XXSP,2013-01-28 07:47:00,
2013-01-28 01:52:00,67.6,63.0,29.71,South,180,8.9,8.9,85,0.00,,,0.00,WUHU21623XXSP,2013-01-28 07:52:00,
2013-01-28 01:57:00,67.6,63.0,29.71,South,180,5.1,9.2,85,0.00,,,0.00,WUHU21623XXSP,2013-01-28 07:57:00,
2013-01-28 02:02:00,67.5,62.8,29.71,SSW,202,11.0,11.0,85,0.00,,,0.00,WUHU21623XXSP,2013-01-28 08:02:00,
2013-01-28 02:07:00,67.3,62.6,29.71,SSW,202,4.5,11.0,85,0.00,,,0.00,WUHU21623XXSP,2013-01-28 08:07:00,
2013-01-28 02:12:00,67.3,62.6,29.71,SSW,202,5.8,14.8,85,0.00,,,0.00,WUHU21623XXSP,2013-01-28 08:12:00,
2013-01-28 02:17:00,67.3,62.6,29.70,SSW,202,4.7,14.8,85,0.00,,,0.00,WUHU21623XXSP,2013-01-28 08:17:00,
2013-01-28 02:22:00,67.3,62.6,29.71,SSW,202,4.5,12.8,85,0.00,,,0.00,WUHU21623XXSP,2013-01-28 08:22:00,
2013-01-28 02:27:00,67.3,62.6,29.70,SSW,202,3.6,12.8,85,0.00,,,0.00,WUHU21623XXSP,2013-01-28 08:27:00,
2013-01-28 02:32:00,67.3,62.6,29.70,South,180,5.1,15.4,85,0.00,,,0.00,WUHU21623XXSP,2013-01-28 08:32:00,
2013-01-28 02:37:00,67.3,62.6,29.70,South,180,10.3,15.4,85,0.00,,,0.00,WUHU21623XXSP,2013-01-28 08:37:00,
2013-01-28 02:42:00,67.3,62.9,29.70,SSE,157,7.6,10.3,86,0.00,,,0.00,WUHU21623XXSP,2013-01-28 08:42:00,
2013-01-28 02:47:00,67.3,62.9,29.70,South,180,3.6,8.5,86,0.00,,,0.00,WUHU21623XXSP,2013-01-28 08:47:00,
2013-01-28 02:52:00,67.3,62.9,29.70,SSE,157,11.2,16.8,86,0.00,,,0.00,WUHU21623XXSP,2013-01-28 08:52:00,
2013-01-28 02:57:00,67.1,62.7,29.70,South,180,4.7,16.8,86,0.00,,,0.00,WUHU21623XXSP,2013-01-28 08:57:00,
2013-01-28 03:02:00,67.1,62.7,29.70,SSE,157,9.6,9.6,86,0.00,,,0.00,WUHU21623XXSP,2013-01-28 09:02:00,
2013-01-28 03:07:00,67.1,62.7,29.70,South,180,5.1,9.6,86,0.00,,,0.00,WUHU21623XXSP,2013-01-28 09:07:00,
2013-01-28 03:12:00,66.9,62.6,29.70,SE,135,6.0,9.6,86,0.00,,,0.00,WUHU21623XXSP,2013-01-28 09:12:00,
2013-01-28 03:17:00,66.9,62.6,29.70,SE,135,5.1,8.3,86,0.00,,,0.00,WUHU21623XXSP,2013-01-28 09:17:00,
2013-01-28 03:22:00,66.9,62.6,29.70,South,180,1.8,9.8,86,0.00,,,0.00,WUHU21623XXSP,2013-01-28 09:22:00,
2013-01-28 03:27:00,66.9,62.6,29.70,SSW,202,2.2,9.8,86,0.00,,,0.00,WUHU21623XXSP,2013-01-28 09:27:00,
2013-01-28 03:32:00,66.9,62.6,29.70,SSE,157,8.9,9.6,86,0.00,,,0.00,WUHU21623XXSP,2013-01-28 09:32:00,
2013-01-28 03:37:00,66.9,62.6,29.70,South,180,10.7,10.7,86,0.00,,,0.00,WUHU21623XXSP,2013-01-28 09:37:00,
2013-01-28 03:42:00,66.9,62.6,29.70,SE,135,4.5,10.7,86,0.00,,,0.00,WUHU21623XXSP,2013-01-28 09:42:00,
2013-01-28 03:47:00,66.9,62.6,29.70,South,180,6.3,8.1,86,0.00,,,0.00,WUHU21623XXSP,2013-01-28 09:47:00,
2013-01-28 03:52:00,66.9,62.6,29.69,South,180,7.8,8.1,86,0.00,,,0.00,WUHU21623XXSP,2013-01-28 09:52:00,
2013-01-28 03:57:00,66.7,62.4,29.70,South,180,7.2,7.8,86,0.00,,,0.00,WUHU21623XXSP,2013-01-28 09:57:00,
2013-01-28 04:02:00,66.7,62.4,29.69,South,180,2.9,7.2,86,0.00,,,0.00,WUHU21623XXSP,2013-01-28 10:02:00,
2013-01-28 04:07:00,66.7,62.4,29.69,South,180,9.8,9.8,86,0.00,,,0.00,WUHU21623XXSP,2013-01-28 10:07:00,
2013-01-28 04:12:00,66.7,62.7,29.69,SSW,202,5.4,9.8,87,0.00,,,0.00,WUHU21623XXSP,2013-01-28 10:12:00,
2013-01-28 04:18:00,66.7,62.7,29.69,South,180,5.8,11.9,87,0.00,,,0.00,WUHU21623XXSP,2013-01-28 10:18:00,
2013-01-28 04:23:00,66.7,62.7,29.68,South,180,9.6,11.9,87,0.00,,,0.00,WUHU21623XXSP,2013-01-28 10:23:00,
2013-01-28 04:28:00,66.7,62.7,29.68,SW,225,6.0,9.8,87,0.00,,,0.00,WUHU21623XXSP,2013-01-28 10:28:00,
2013-01-28 04:33:00,66.7,62.7,29.68,SSW,202,4.3,10.3,87,0.00,,,0.00,WUHU21623XXSP,2013-01-28 10:33:00,
2013-01-28 04:38:00,66.6,62.5,29.68,SSE,157,8.7,10.3,87,0.00,,,0.00,WUHU21623XXSP,2013-01-28 10:38:00,
2013-01-28 04:43:00,66.6,62.5,29.68,SSW,202,3.6,8.7,87,0.00,,,0.00,WUHU21623XXSP,2013-01-28 10:43:00,
2013-01-28 04:48:00,66.7,62.7,29.68,SSE,157,3.4,7.8,87,0.00,,,0.00,WUHU21623XXSP,2013-01-28 10:48:00,
2013-01-28 04:53:00,66.7,62.7,29.68,South,180,6.0,7.6,87,0.00,,,0.00,WUHU21623XXSP,2013-01-28 10:53:00,
2013-01-28 04:58:00,66.7,62.7,29.68,South,180,8.7,8.7,87,0.00,,,0.00,WUHU21623XXSP,2013-01-28 10:58:00,
2013-01-28 05:03:00,66.7,62.7,29.68,SW,225,3.8,8.7,87,0.00,,,0.00,WUHU21623XXSP,2013-01-28 11:03:00,
2013-01-28 05:08:00,66.7,62.7,29.68,South,180,6.0,6.3,87,0.00,,,0.00,WUHU21623XXSP,2013-01-28 11:08:00,
2013-01-28 05:13:00,66.7,62.7,29.68,SE,135,12.3,12.3,87,0.00,,,0.00,WUHU21623XXSP,2013-01-28 11:13:00,
2013-01-28 05:18:00,66.7,62.7,29.68,SSE,157,10.1,16.6,87,0.00,,,0.00,WUHU21623XXSP,2013-01-28 11:18:00,
2013-01-28 05:23:00,66.7,63.0,29.68,South,180,3.1,16.6,88,0.00,,,0.00,WUHU21623XXSP,2013-01-28 11:23:00,
2013-01-28 05:28:00,66.7,63.0,29.68,SSE,157,10.7,10.7,88,0.00,,,0.00,WUHU21623XXSP,2013-01-28 11:28:00,
2013-01-28 05:33:00,66.7,63.0,29.68,South,180,14.5,14.5,88,0.00,,,0.00,WUHU21623XXSP,2013-01-28 11:33:00,
2013-01-28 05:38:00,66.7,63.0,29.68,South,180,6.5,14.5,88,0.00,,,0.00,WUHU21623XXSP,2013-01-28 11:38:00,
2013-01-28 05:43:00,66.7,63.0,29.68,SSE,157,3.6,7.8,88,0.00,,,0.00,WUHU21623XXSP,2013-01-28 11:43:00,
2013-01-28 05:48:00,66.7,63.0,29.68,SSW,202,4.9,9.8,88,0.00,,,0.00,WUHU21623XXSP,2013-01-28 11:48:00,
2013-01-28 05:53:00,66.7,63.0,29.68,SSE,157,13.2,13.2,88,0.00,,,0.00,WUHU21623XXSP,2013-01-28 11:53:00,
2013-01-28 05:58:00,66.7,63.0,29.68,South,180,4.0,13.2,88,0.00,,,0.00,WUHU21623XXSP,2013-01-28 11:58:00,
2013-01-28 06:03:00,66.7,63.0,29.68,South,180,4.3,15.0,88,0.00,,,0.00,WUHU21623XXSP,2013-01-28 12:03:00,
2013-01-28 06:08:00,66.7,63.0,29.68,South,180,6.0,15.0,88,0.00,,,0.00,WUHU21623XXSP,2013-01-28 12:08:00,
2013-01-28 06:13:00,66.7,63.0,29.68,South,180,5.8,11.4,88,0.00,,,0.00,WUHU21623XXSP,2013-01-28 12:13:00,
2013-01-28 06:18:00,66.7,63.0,29.68,SE,135,6.7,11.4,88,0.00,,,0.00,WUHU21623XXSP,2013-01-28 12:18:00,
2013-01-28 06:23:00,66.7,63.0,29.68,WSW,247,4.9,9.2,88,0.00,,,0.00,WUHU21623XXSP,2013-01-28 12:23:00,
2013-01-28 06:28:00,66.7,63.0,29.68,South,180,12.1,12.1,88,0.00,,,0.00,WUHU21623XXSP,2013-01-28 12:28:00,
2013-01-28 06:33:00,66.7,63.0,29.68,SSW,202,13.2,13.2,88,0.00,,,0.00,WUHU21623XXSP,2013-01-28 12:33:00,
2013-01-28 06:38:00,66.9,63.2,29.68,South,180,6.3,13.2,88,0.00,,,0.00,WUHU21623XXSP,2013-01-28 12:38:00,
2013-01-28 06:43:00,66.9,63.2,29.68,South,180,10.5,10.5,88,0.00,,,0.00,WUHU21623XXSP,2013-01-28 12:43:00,
2013-01-28 06:48:00,66.9,63.2,29.69,SSE,157,7.6,10.5,88,0.00,,,0.00,WUHU21623XXSP,2013-01-28 12:48:00,
2013-01-28 06:53:00,66.9,63.2,29.69,South,180,4.5,11.2,88,0.00,,,0.00,WUHU21623XXSP,2013-01-28 12:53:00,
2013-01-28 06:58:00,66.9,63.2,29.69,SE,135,9.6,11.2,88,0.00,,,0.00,WUHU21623XXSP,2013-01-28 12:58:00,
2013-01-28 07:03:00,66.9,63.2,29.69,SSW,202,9.4,9.6,88,0.00,,,0.00,WUHU21623XXSP,2013-01-28 13:03:00,
2013-01-28 07:08:00,66.9,63.2,29.69,SSE,157,5.1,13.6,88,0.00,,,0.00,WUHU21623XXSP,2013-01-28 13:08:00,
2013-01-28 07:13:00,66.9,63.2,29.70,WSW,247,7.4,13.6,88,0.00,,,0.00,WUHU21623XXSP,2013-01-28 13:13:00,
2013-01-28 07:18:00,66.9,63.2,29.70,South,180,3.6,11.2,88,0.00,,,0.00,WUHU21623XXSP,2013-01-28 13:18:00,
2013-01-28 07:23:00,66.9,63.2,29.70,South,180,8.7,9.8,88,0.00,,,0.00,WUHU21623XXSP,2013-01-28 13:23:00,
2013-01-28 07:28:00,66.9,63.2,29.70,South,180,8.5,9.8,88,0.00,,,0.00,WUHU21623XXSP,2013-01-28 13:28:00,
2013-01-28 07:33:00,66.9,63.2,29.70,South,180,11.9,11.9,88,0.00,,,0.00,WUHU21623XXSP,2013-01-28 13:33:00,
2013-01-28 07:38:00,67.1,63.1,29.70,SSW,202,10.1,12.8,87,0.00,,,0.00,WUHU21623XXSP,2013-01-28 13:38:00,
2013-01-28 07:43:00,67.1,63.1,29.70,South,180,8.9,12.8,87,0.00,,,0.00,WUHU21623XXSP,2013-01-28 13:43:00,
2013-01-28 07:48:00,67.1,63.1,29.71,South,180,13.2,17.0,87,0.00,,,0.00,WUHU21623XXSP,2013-01-28 13:48:00,
2013-01-28 07:53:00,67.3,63.2,29.70,SSE,157,12.8,17.0,87,0.00,,,0.00,WUHU21623XXSP,2013-01-28 13:53:00,
2013-01-28 07:58:00,67.3,63.2,29.70,South,180,6.3,12.8,87,0.00,,,0.00,WUHU21623XXSP,2013-01-28 13:58:00,
2013-01-28 08:03:00,67.3,63.2,29.70,SSW,202,6.0,16.8,87,0.00,,,0.00,WUHU21623XXSP,2013-01-28 14:03:00,
2013-01-28 08:08:00,67.3,63.2,29.70,SSW,202,11.6,16.8,87,0.00,,,0.00,WUHU21623XXSP,2013-01-28 14:08:00,
2013-01-28 08:13:00,67.5,63.4,29.71,South,180,3.1,11.6,87,0.00,,,0.00,WUHU21623XXSP,2013-01-28 14:13:00,
2013-01-28 08:18:00,67.3,63.2,29.71,SSW,202,8.9,10.3,87,0.00,,,0.00,WUHU21623XXSP,2013-01-28 14:18:00,
2013-01-28 08:23:00,67.6,63.6,29.71,SSW,202,5.1,10.5,87,0.00,,,0.00,WUHU21623XXSP,2013-01-28 14:23:00,
2013-01-28 08:28:00,67.6,63.6,29.71,SSW,202,5.1,10.5,87,0.00,,,0.00,WUHU21623XXSP,2013-01-28 14:28:00,
2013-01-28 08:33:00,67.6,63.6,29.71,South,180,9.2,11.9,87,0.00,,,0.00,WUHU21623XXSP,2013-01-28 14:33:00,
2013-01-28 08:38:00,67.8,63.8,29.70,South,180,9.6,12.1,87,0.00,,,0.00,WUHU21623XXSP,2013-01-28 14:38:00,
2013-01-28 08:43:00,67.8,63.8,29.70,SSE,157,10.5,12.1,87,0.00,,,0.00,WUHU21623XXSP,2013-01-28 14:43:00,
2013-01-28 08:48:00,68.0,64.0,29.70,SW,225,8.1,11.2,87,0.00,,,0.00,WUHU21623XXSP,2013-01-28 14:48:00,
2013-01-28 08:53:00,68.2,64.1,29.70,SSE,157,7.6,10.5,87,0.00,,,0.00,WUHU21623XXSP,2013-01-28 14:53:00,
2013-01-28 08:58:00,68.2,64.1,29.70,SSE,157,9.6,10.5,87,0.00,,,0.00,WUHU21623XXSP,2013-01-28 14:58:00,
2013-01-28 09:03:00,68.4,64.3,29.71,South,180,6.9,19.7,87,0.00,,,0.00,WUHU21623XXSP,2013-01-28 15:03:00,
2013-01-28 09:08:00,68.5,64.1,29.71,South,180,9.6,19.7,86,0.00,,,0.00,WUHU21623XXSP,2013-01-28 15:08:00,
2013-01-28 09:13:00,68.5,64.1,29.71,SE,135,5.1,9.6,86,0.00,,,0.00,WUHU21623XXSP,2013-01-28 15:13:00,
2013-01-28 09:18:00,68.7,64.3,29.71,SSW,202,9.4,9.6,86,0.00,,,0.00,WUHU21623XXSP,2013-01-28 15:18:00,
2013-01-28 09:23:00,68.7,64.3,29.71,South,180,7.8,9.4,86,0.00,,,0.00,WUHU21623XXSP,2013-01-28 15:23:00,
2013-01-28 09:29:00,69.1,64.7,29.72,South,180,16.8,16.8,86,0.00,,,0.00,WUHU21623XXSP,2013-01-28 15:29:00,
2013-01-28 09:34:00,69.4,65.0,29.71,SSE,157,7.2,16.8,86,0.00,,,0.00,WUHU21623XXSP,2013-01-28 15:34:00,
2013-01-28 09:39:00,69.6,65.2,29.71,South,180,7.8,7.8,86,0.00,,,0.00,WUHU21623XXSP,2013-01-28 15:39:00,
2013-01-28 09:44:00,70.0,65.4,29.72,SSW,202,5.8,7.8,86,0.00,,,0.00,WUHU21623XXSP,2013-01-28 15:44:00,
2013-01-28 09:49:00,70.2,65.2,29.71,SSW,202,17.0,17.0,85,0.00,,,0.00,WUHU21623XXSP,2013-01-28 15:49:00,
2013-01-28 09:54:00,70.3,65.2,29.71,South,180,16.3,17.0,84,0.00,,,0.00,WUHU21623XXSP,2013-01-28 15:54:00,
2013-01-28 09:59:00,70.3,65.2,29.71,SSW,202,8.9,16.3,84,0.00,,,0.00,WUHU21623XXSP,2013-01-28 15:59:00,
2013-01-28 10:04:00,70.0,64.9,29.71,South,180,6.7,15.9,84,0.00,,,0.00,WUHU21623XXSP,2013-01-28 16:04:00,
2013-01-28 10:09:00,70.0,65.0,29.71,SSE,157,11.2,15.9,84,0.00,,,0.00,WUHU21623XXSP,2013-01-28 16:09:00,
2013-01-28 10:14:00,70.0,64.9,29.71,SSE,157,9.6,11.2,84,0.00,,,0.00,WUHU21623XXSP,2013-01-28 16:14:00,
2013-01-28 10:19:00,70.2,65.0,29.71,SSW,202,7.4,11.4,84,0.00,,,0.00,WUHU21623XXSP,2013-01-28 16:19:00,
2013-01-28 10:24:00,70.2,65.0,29.71,South,180,10.5,11.4,84,0.00,,,0.00,WUHU21623XXSP,2013-01-28 16:24:00,
2013-01-28 10:29:00,70.3,65.2,29.71,South,180,10.5,10.5,83,0.00,,,0.00,WUHU21623XXSP,2013-01-28 16:29:00,
2013-01-28 10:34:00,70.7,65.2,29.71,SSW,202,12.8,20.1,83,0.00,,,0.00,WUHU21623XXSP,2013-01-28 16:34:00,
2013-01-28 10:39:00,71.1,65.6,29.71,South,180,11.2,20.1,83,0.00,,,0.00,WUHU21623XXSP,2013-01-28 16:39:00,
2013-01-28 10:44:00,71.4,66.0,29.71,South,180,10.1,14.8,83,0.00,,,0.00,WUHU21623XXSP,2013-01-28 16:44:00,
2013-01-28 10:49:00,71.8,65.6,29.71,SSE,157,18.8,18.8,81,0.00,,,0.00,WUHU21623XXSP,2013-01-28 16:49:00,
2013-01-28 10:54:00,72.0,65.8,29.70,SSW,202,13.0,23.3,81,0.00,,,0.00,WUHU21623XXSP,2013-01-28 16:54:00,
2013-01-28 10:59:00,72.1,66.0,29.70,South,180,21.9,23.3,81,0.00,,,0.00,WUHU21623XXSP,2013-01-28 16:59:00,
2013-01-28 11:04:00,72.1,65.7,29.70,South,180,19.0,21.9,80,0.00,,,0.00,WUHU21623XXSP,2013-01-28 17:04:00,
2013-01-28 11:09:00,72.0,65.5,29.70,SE,135,12.5,19.0,80,0.00,,,0.00,WUHU21623XXSP,2013-01-28 17:09:00,
2013-01-28 11:14:00,72.1,65.7,29.70,West,270,12.3,12.5,80,0.00,,,0.00,WUHU21623XXSP,2013-01-28 17:14:00,
2013-01-28 11:19:00,72.1,65.7,29.70,South,180,19.0,19.2,80,0.00,,,0.00,WUHU21623XXSP,2013-01-28 17:19:00,
2013-01-28 11:24:00,72.3,65.5,29.70,South,180,18.8,19.2,79,0.00,,,0.00,WUHU21623XXSP,2013-01-28 17:24:00,
2013-01-28 11:29:00,73.0,66.2,29.70,SSW,202,21.9,21.9,79,0.00,,,0.00,WUHU21623XXSP,2013-01-28 17:29:00,
2013-01-28 11:34:00,73.0,65.8,29.70,SSW,202,7.8,21.9,78,0.00,,,0.00,WUHU21623XXSP,2013-01-28 17:34:00,
2013-01-28 11:39:00,73.0,66.2,29.70,SSE,157,13.0,13.0,79,0.00,,,0.00,WUHU21623XXSP,2013-01-28 17:39:00,
2013-01-28 11:44:00,73.2,66.0,29.70,SW,225,11.4,15.9,78,0.00,,,0.00,WUHU21623XXSP,2013-01-28 17:44:00,
2013-01-28 11:49:00,73.2,66.0,29.70,South,180,9.2,15.9,78,0.00,,,0.00,WUHU21623XXSP,2013-01-28 17:49:00,
2013-01-28 11:54:00,73.0,65.8,29.69,SSW,202,12.8,17.2,78,0.00,,,0.00,WUHU21623XXSP,2013-01-28 17:54:00,
2013-01-28 11:59:00,73.0,65.8,29.68,SSE,157,13.0,24.2,78,0.00,,,0.00,WUHU21623XXSP,2013-01-28 17:59:00,
2013-01-28 12:04:00,73.2,65.6,29.68,SW,225,8.3,24.2,77,0.00,,,0.00,WUHU21623XXSP,2013-01-28 18:04:00,
2013-01-28 12:09:00,73.4,65.8,29.67,South,180,11.6,19.7,77,0.00,,,0.00,WUHU21623XXSP,2013-01-28 18:09:00,
2013-01-28 12:14:00,73.9,65.9,29.68,SSE,157,25.3,25.3,76,0.00,,,0.00,WUHU21623XXSP,2013-01-28 18:14:00,
2013-01-28 12:19:00,73.9,65.9,29.67,SSE,157,10.5,25.3,76,0.00,,,0.00,WUHU21623XXSP,2013-01-28 18:19:00,
2013-01-28 12:24:00,73.9,65.9,29.67,SSE,157,14.1,22.6,76,0.00,,,0.00,WUHU21623XXSP,2013-01-28 18:24:00,
2013-01-28 12:29:00,74.3,65.9,29.66,SSW,202,10.7,22.6,75,0.00,,,0.00,WUHU21623XXSP,2013-01-28 18:29:00,
2013-01-28 12:34:00,74.5,66.1,29.66,South,180,14.1,18.1,75,0.00,,,0.00,WUHU21623XXSP,2013-01-28 18:34:00,
2013-01-28 12:39:00,74.8,66.4,29.66,South,180,11.9,19.0,75,0.00,,,0.00,WUHU21623XXSP,2013-01-28 18:39:00,
2013-01-28 12:44:00,75.0,65.8,29.65,West,270,11.2,19.0,73,0.00,,,0.00,WUHU21623XXSP,2013-01-28 18:44:00,
2013-01-28 12:49:00,75.0,65.8,29.65,SSE,157,12.3,12.3,73,0.00,,,0.00,WUHU21623XXSP,2013-01-28 18:49:00,
2013-01-28 12:54:00,75.4,66.3,29.65,SSE,157,16.1,16.1,73,0.00,,,0.00,WUHU21623XXSP,2013-01-28 18:54:00,
2013-01-28 12:59:00,75.4,66.1,29.65,WSW,247,16.6,16.6,73,0.00,,,0.00,WUHU21623XXSP,2013-01-28 18:59:00,
2013-01-28 13:04:00,75.4,65.7,29.64,South,180,19.7,20.6,72,0.00,,,0.00,WUHU21623XXSP,2013-01-28 19:04:00,
2013-01-28 13:09:00,75.4,65.7,29.64,SE,135,7.2,20.6,72,0.00,,,0.00,WUHU21623XXSP,2013-01-28 19:09:00,
2013-01-28 13:14:00,75.6,65.5,29.63,SSE,157,13.2,20.6,71,0.00,,,0.00,WUHU21623XXSP,2013-01-28 19:14:00,
2013-01-28 13:19:00,75.7,65.5,29.63,SE,135,12.3,16.8,71,0.00,,,0.00,WUHU21623XXSP,2013-01-28 19:19:00,
2013-01-28 13:24:00,75.9,65.9,29.62,South,180,9.8,12.3,71,0.00,,,0.00,WUHU21623XXSP,2013-01-28 19:24:00,
2013-01-28 13:29:00,75.9,65.5,29.62,South,180,21.0,21.0,70,0.00,,,0.00,WUHU21623XXSP,2013-01-28 19:29:00,
2013-01-28 13:34:00,75.9,65.5,29.62,SSW,202,15.4,21.0,70,0.00,,,0.00,WUHU21623XXSP,2013-01-28 19:34:00,
2013-01-28 13:39:00,75.9,65.5,29.62,SSE,157,12.1,15.4,70,0.00,,,0.00,WUHU21623XXSP,2013-01-28 19:39:00,
2013-01-28 13:44:00,75.9,65.5,29.62,SSW,202,16.6,16.6,70,0.00,,,0.00,WUHU21623XXSP,2013-01-28 19:44:00,
2013-01-28 13:49:00,75.9,65.0,29.61,SE,135,13.4,16.6,69,0.00,,,0.00,WUHU21623XXSP,2013-01-28 19:49:00,
2013-01-28 13:54:00,75.9,65.0,29.61,SSW,202,17.4,17.4,69,0.00,,,0.00,WUHU21623XXSP,2013-01-28 19:54:00,
2013-01-28 13:59:00,75.7,64.8,29.61,South,180,11.6,17.4,69,0.00,,,0.00,WUHU21623XXSP,2013-01-28 19:59:00,
2013-01-28 14:04:00,75.7,64.8,29.61,South,180,11.6,17.2,69,0.00,,,0.00,WUHU21623XXSP,2013-01-28 20:04:00,
2013-01-28 14:09:00,75.7,64.8,29.60,SSE,157,8.9,11.6,69,0.00,,,0.00,WUHU21623XXSP,2013-01-28 20:09:00,
2013-01-28 14:15:00,75.7,64.8,29.60,South,180,9.2,9.2,69,0.00,,,0.00,WUHU21623XXSP,2013-01-28 20:15:00,
2013-01-28 14:20:00,75.7,64.4,29.60,SSW,202,15.4,18.3,68,0.00,,,0.00,WUHU21623XXSP,2013-01-28 20:20:00,
2013-01-28 14:25:00,75.7,64.4,29.60,SSW,202,18.8,18.8,68,0.00,,,0.00,WUHU21623XXSP,2013-01-28 20:25:00,
2013-01-28 14:30:00,75.7,64.4,29.60,SSW,202,20.8,20.8,68,0.00,,,0.00,WUHU21623XXSP,2013-01-28 20:30:00,
2013-01-28 14:35:00,75.7,64.0,29.60,SSW,202,12.5,20.8,67,0.00,,,0.00,WUHU21623XXSP,2013-01-28 20:35:00,
2013-01-28 14:40:00,75.7,64.0,29.59,SSW,202,12.5,18.3,68,0.00,,,0.00,WUHU21623XXSP,2013-01-28 20:40:00,
2013-01-28 14:45:00,75.9,64.6,29.59,SW,225,9.6,13.2,68,0.00,,,0.00,WUHU21623XXSP,2013-01-28 20:45:00,
2013-01-28 14:50:00,75.9,64.6,29.59,South,180,22.4,22.4,68,0.00,,,0.00,WUHU21623XXSP,2013-01-28 20:50:00,
2013-01-28 14:55:00,75.9,64.6,29.59,SSE,157,15.0,22.4,68,0.00,,,0.00,WUHU21623XXSP,2013-01-28 20:55:00,
2013-01-28 15:00:00,75.9,64.6,29.59,SW,225,15.9,20.8,68,0.00,,,0.00,WUHU21623XXSP,2013-01-28 21:00:00,
2013-01-28 15:05:00,75.7,64.4,29.59,SSE,157,15.0,20.8,68,0.00,,,0.00,WUHU21623XXSP,2013-01-28 21:05:00,
2013-01-28 15:10:00,75.7,64.4,29.59,SSE,157,15.0,15.9,68,0.00,,,0.00,WUHU21623XXSP,2013-01-28 21:10:00,
2013-01-28 15:15:00,75.7,64.8,29.59,SSW,202,15.7,16.3,69,0.00,,,0.00,WUHU21623XXSP,2013-01-28 21:15:00,
2013-01-28 15:20:00,75.7,64.8,29.59,SSE,157,20.1,20.1,69,0.00,,,0.00,WUHU21623XXSP,2013-01-28 21:20:00,
2013-01-28 15:25:00,75.6,64.7,29.59,SSE,157,16.6,20.1,69,0.00,,,0.00,WUHU21623XXSP,2013-01-28 21:25:00,
2013-01-28 15:30:00,75.4,64.1,29.59,SSE,157,14.3,16.6,68,0.00,,,0.00,WUHU21623XXSP,2013-01-28 21:30:00,
2013-01-28 15:35:00,75.4,64.1,29.59,South,180,16.1,16.1,68,0.00,,,0.00,WUHU21623XXSP,2013-01-28 21:35:00,
2013-01-28 15:40:00,75.4,64.5,29.59,South,180,14.8,16.1,69,0.00,,,0.00,WUHU21623XXSP,2013-01-28 21:40:00,
2013-01-28 15:45:00,75.4,64.5,29.58,SE,135,8.3,14.8,69,0.00,,,0.00,WUHU21623XXSP,2013-01-28 21:45:00,
2013-01-28 15:50:00,75.2,64.3,29.58,South,180,15.4,15.4,69,0.00,,,0.00,WUHU21623XXSP,2013-01-28 21:50:00,
2013-01-28 15:55:00,75.0,64.1,29.58,SE,135,13.4,22.1,69,0.00,,,0.00,WUHU21623XXSP,2013-01-28 21:55:00,
2013-01-28 16:00:00,75.0,64.1,29.58,SSE,157,20.1,22.1,69,0.00,,,0.00,WUHU21623XXSP,2013-01-28 22:00:00,
2013-01-28 16:05:00,74.8,64.0,29.58,SSW,202,14.1,22.1,69,0.00,,,0.00,WUHU21623XXSP,2013-01-28 22:05:00,
2013-01-28 16:10:00,74.7,64.0,29.58,SSW,202,14.1,14.1,70,0.00,,,0.00,WUHU21623XXSP,2013-01-28 22:10:00,
2013-01-28 16:15:00,74.5,64.1,29.58,West,270,9.6,20.8,70,0.00,,,0.00,WUHU21623XXSP,2013-01-28 22:15:00,
2013-01-28 16:20:00,74.5,64.5,29.58,SE,135,10.3,22.4,71,0.00,,,0.00,WUHU21623XXSP,2013-01-28 22:20:00,
2013-01-28 16:25:00,74.3,64.3,29.58,SSE,157,15.7,22.4,71,0.00,,,0.00,WUHU21623XXSP,2013-01-28 22:25:00,
2013-01-28 16:30:00,73.9,64.0,29.58,SSE,157,9.2,15.7,71,0.00,,,0.00,WUHU21623XXSP,2013-01-28 22:30:00,
2013-01-28 16:35:00,73.9,64.0,29.58,SW,225,12.5,12.5,71,0.00,,,0.00,WUHU21623XXSP,2013-01-28 22:35:00,
2013-01-28 16:40:00,73.8,63.8,29.58,SSW,202,11.0,12.5,71,0.00,,,0.00,WUHU21623XXSP,2013-01-28 22:40:00,
2013-01-28 16:45:00,73.8,64.2,29.58,SSW,202,11.4,14.1,72,0.00,,,0.00,WUHU21623XXSP,2013-01-28 22:45:00,
2013-01-28 16:50:00,73.6,64.1,29.58,SE,135,19.7,19.7,72,0.00,,,0.00,WUHU21623XXSP,2013-01-28 22:50:00,
2013-01-28 16:55:00,73.6,64.1,29.58,SSE,157,7.8,19.7,72,0.00,,,0.00,WUHU21623XXSP,2013-01-28 22:55:00,
2013-01-28 17:00:00,73.2,63.7,29.57,SSW,202,10.3,11.4,72,0.00,,,0.00,WUHU21623XXSP,2013-01-28 23:00:00,
2013-01-28 17:05:00,73.2,64.1,29.58,South,180,20.4,22.6,73,0.00,,,0.00,WUHU21623XXSP,2013-01-28 23:05:00,
2013-01-28 17:10:00,73.0,63.9,29.58,SSE,157,12.1,22.6,73,0.00,,,0.00,WUHU21623XXSP,2013-01-28 23:10:00,
2013-01-28 17:15:00,72.7,63.6,29.58,South,180,11.9,15.9,73,0.00,,,0.00,WUHU21623XXSP,2013-01-28 23:15:00,
2013-01-28 17:20:00,72.7,63.6,29.58,SSE,157,9.2,15.9,73,0.00,,,0.00,WUHU21623XXSP,2013-01-28 23:20:00,
2013-01-28 17:25:00,72.5,63.4,29.58,South,180,3.8,19.0,73,0.00,,,0.00,WUHU21623XXSP,2013-01-28 23:25:00,
2013-01-28 17:31:00,72.3,63.6,29.59,SSE,157,12.8,19.0,74,0.00,,,0.00,WUHU21623XXSP,2013-01-28 23:31:00,
2013-01-28 17:36:00,72.3,63.6,29.59,SSE,157,10.3,18.3,74,0.00,,,0.00,WUHU21623XXSP,2013-01-28 23:36:00,
2013-01-28 17:41:00,72.1,63.4,29.59,SSE,157,10.5,10.5,74,0.00,,,0.00,WUHU21623XXSP,2013-01-28 23:41:00,
2013-01-28 17:46:00,72.1,63.8,29.59,SE,135,12.5,12.5,75,0.00,,,0.00,WUHU21623XXSP,2013-01-28 23:46:00,
2013-01-28 17:51:00,72.0,63.6,29.59,SSE,157,6.9,12.5,75,0.00,,,0.00,WUHU21623XXSP,2013-01-28 23:51:00,
2013-01-28 17:56:00,72.0,63.6,29.59,SE,135,10.1,12.1,75,0.00,,,0.00,WUHU21623XXSP,2013-01-28 23:56:00,
2013-01-28 18:01:00,71.8,63.4,29.59,SE,135,6.5,12.1,75,0.00,,,0.00,WUHU21623XXSP,2013-01-29 00:01:00,
2013-01-28 18:06:00,71.8,63.4,29.59,SSE,157,4.7,14.3,75,0.00,,,0.00,WUHU21623XXSP,2013-01-29 00:06:00,
2013-01-28 18:11:00,71.8,63.8,29.59,SE,135,4.3,14.3,76,0.00,,,0.00,WUHU21623XXSP,2013-01-29 00:11:00,
2013-01-28 18:16:00,71.4,63.4,29.58,SSE,157,7.6,11.4,76,0.00,,,0.00,WUHU21623XXSP,2013-01-29 00:16:00,
2013-01-28 18:21:00,71.4,63.4,29.59,SE,135,5.6,11.4,76,0.00,,,0.00,WUHU21623XXSP,2013-01-29 00:21:00,
2013-01-28 18:26:00,71.4,63.4,29.59,SSE,157,3.1,8.7,76,0.00,,,0.00,WUHU21623XXSP,2013-01-29 00:26:00,
2013-01-28 18:31:00,71.4,63.4,29.59,SSE,157,10.7,10.7,76,0.00,,,0.00,WUHU21623XXSP,2013-01-29 00:31:00,
2013-01-28 18:36:00,71.2,63.2,29.59,SSE,157,6.3,10.7,76,0.00,,,0.00,WUHU21623XXSP,2013-01-29 00:36:00,
2013-01-28 18:41:00,71.2,63.2,29.59,South,180,15.7,15.7,76,0.00,,,0.00,WUHU21623XXSP,2013-01-29 00:41:00,
2013-01-28 18:46:00,71.2,63.6,29.60,SSE,157,2.5,15.7,77,0.00,,,0.00,WUHU21623XXSP,2013-01-29 00:46:00,
2013-01-28 18:51:00,71.2,63.6,29.59,South,180,13.4,14.1,77,0.00,,,0.00,WUHU21623XXSP,2013-01-29 00:51:00,
2013-01-28 18:56:00,71.2,63.6,29.59,South,180,5.4,14.1,77,0.00,,,0.00,WUHU21623XXSP,2013-01-29 00:56:00,
2013-01-28 19:01:00,71.1,63.4,29.59,South,180,13.6,13.6,77,0.00,,,0.00,WUHU21623XXSP,2013-01-29 01:01:00,
2013-01-28 19:06:00,70.9,63.6,29.59,South,180,6.0,13.6,78,0.00,,,0.00,WUHU21623XXSP,2013-01-29 01:06:00,
2013-01-28 19:11:00,70.9,63.6,29.59,South,180,10.1,10.3,78,0.00,,,0.00,WUHU21623XXSP,2013-01-29 01:11:00,
2013-01-28 19:16:00,70.9,63.6,29.59,South,180,9.2,10.3,78,0.00,,,0.00,WUHU21623XXSP,2013-01-29 01:16:00,
2013-01-28 19:21:00,70.9,63.6,29.60,SSE,157,15.9,15.9,78,0.00,,,0.00,WUHU21623XXSP,2013-01-29 01:21:00,
2013-01-28 19:26:00,70.9,63.6,29.60,SSE,157,8.1,15.9,78,0.00,,,0.00,WUHU21623XXSP,2013-01-29 01:26:00,
2013-01-28 19:31:00,70.7,63.5,29.59,South,180,4.9,11.4,78,0.00,,,0.00,WUHU21623XXSP,2013-01-29 01:31:00,
2013-01-28 19:36:00,70.7,63.5,29.59,SSE,157,5.1,11.4,78,0.00,,,0.00,WUHU21623XXSP,2013-01-29 01:36:00,
2013-01-28 19:41:00,70.7,63.5,29.60,ESE,112,6.7,11.4,78,0.00,,,0.00,WUHU21623XXSP,2013-01-29 01:41:00,
2013-01-28 19:46:00,70.5,63.3,29.60,SE,135,4.9,11.4,78,0.00,,,0.00,WUHU21623XXSP,2013-01-29 01:46:00,
2013-01-28 19:51:00,70.5,63.3,29.60,SE,135,6.0,9.2,78,0.00,,,0.00,WUHU21623XXSP,2013-01-29 01:51:00,
2013-01-28 19:56:00,70.5,63.3,29.60,South,180,6.7,6.7,78,0.00,,,0.00,WUHU21623XXSP,2013-01-29 01:56:00,
2013-01-28 20:01:00,70.5,63.3,29.60,SSE,157,7.4,8.1,78,0.00,,,0.00,WUHU21623XXSP,2013-01-29 02:01:00,
2013-01-28 20:06:00,70.5,63.3,29.60,South,180,8.5,8.5,78,0.00,,,0.00,WUHU21623XXSP,2013-01-29 02:06:00,
2013-01-28 20:11:00,70.5,63.3,29.60,SE,135,5.4,8.5,78,0.00,,,0.00,WUHU21623XXSP,2013-01-29 02:11:00,
2013-01-28 20:16:00,70.5,63.3,29.60,SSE,157,13.0,13.0,78,0.00,,,0.00,WUHU21623XXSP,2013-01-29 02:16:00,
2013-01-28 20:21:00,70.3,63.5,29.60,SSE,157,12.5,13.0,79,0.00,,,0.00,WUHU21623XXSP,2013-01-29 02:21:00,
2013-01-28 20:26:00,70.3,63.5,29.60,SE,135,8.1,12.5,79,0.00,,,0.00,WUHU21623XXSP,2013-01-29 02:26:00,
2013-01-28 20:31:00,70.3,63.5,29.60,SSE,157,17.0,17.0,79,0.00,,,0.00,WUHU21623XXSP,2013-01-29 02:31:00,
2013-01-28 20:36:00,70.3,63.5,29.60,South,180,7.4,17.0,79,0.00,,,0.00,WUHU21623XXSP,2013-01-29 02:36:00,
2013-01-28 20:41:00,70.3,63.5,29.59,SSE,157,5.8,13.0,79,0.00,,,0.00,WUHU21623XXSP,2013-01-29 02:41:00,
2013-01-28 20:46:00,70.3,63.5,29.59,SSE,157,11.2,11.9,79,0.00,,,0.00,WUHU21623XXSP,2013-01-29 02:46:00,
2013-01-28 20:51:00,70.2,63.7,29.59,ESE,112,8.9,12.3,80,0.00,,,0.00,WUHU21623XXSP,2013-01-29 02:51:00,
2013-01-28 20:56:00,70.0,63.5,29.59,SSE,157,8.7,12.3,80,0.00,,,0.00,WUHU21623XXSP,2013-01-29 02:56:00,
2013-01-28 21:01:00,70.0,63.5,29.59,SE,135,13.6,13.6,80,0.00,,,0.00,WUHU21623XXSP,2013-01-29 03:01:00,
2013-01-28 21:06:00,70.0,63.5,29.59,South,180,15.2,15.2,80,0.00,,,0.00,WUHU21623XXSP,2013-01-29 03:06:00,
2013-01-28 21:11:00,69.8,63.3,29.58,SSE,157,13.2,15.2,80,0.00,,,0.00,WUHU21623XXSP,2013-01-29 03:11:00,
2013-01-28 21:16:00,69.8,63.3,29.58,SSW,202,2.9,13.2,80,0.00,,,0.00,WUHU21623XXSP,2013-01-29 03:16:00,
2013-01-28 21:21:00,69.6,63.5,29.59,SSE,157,13.2,13.2,81,0.00,,,0.00,WUHU21623XXSP,2013-01-29 03:21:00,
2013-01-28 21:26:00,69.6,63.5,29.59,SSE,157,5.1,13.2,81,0.00,,,0.00,WUHU21623XXSP,2013-01-29 03:26:00,
2013-01-28 21:31:00,69.6,63.5,29.59,SSE,157,12.3,15.7,81,0.00,,,0.00,WUHU21623XXSP,2013-01-29 03:31:00,
2013-01-28 21:36:00,69.6,63.5,29.59,South,180,11.2,15.7,81,0.00,,,0.00,WUHU21623XXSP,2013-01-29 03:36:00,
2013-01-28 21:41:00,69.6,63.5,29.59,SSE,157,15.9,15.9,81,0.00,,,0.00,WUHU21623XXSP,2013-01-29 03:41:00,
2013-01-28 21:46:00,69.6,63.5,29.59,SSE,157,10.5,15.9,81,0.00,,,0.00,WUHU21623XXSP,2013-01-29 03:46:00,
2013-01-28 21:51:00,69.6,63.8,29.59,SSW,202,9.2,13.6,82,0.00,,,0.00,WUHU21623XXSP,2013-01-29 03:51:00,
2013-01-28 21:56:00,69.6,63.8,29.59,ESE,112,20.1,20.1,82,0.00,,,0.00,WUHU21623XXSP,2013-01-29 03:56:00,
2013-01-28 22:01:00,69.6,63.8,29.59,SSE,157,19.0,20.1,82,0.00,,,0.00,WUHU21623XXSP,2013-01-29 04:01:00,
2013-01-28 22:07:00,69.6,63.8,29.59,South,180,14.1,19.7,82,0.00,,,0.00,WUHU21623XXSP,2013-01-29 04:07:00,
2013-01-28 22:12:00,69.6,63.8,29.59,South,180,8.7,19.7,82,0.00,,,0.00,WUHU21623XXSP,2013-01-29 04:12:00,
2013-01-28 22:17:00,69.6,63.8,29.58,SE,135,10.3,16.8,82,0.00,,,0.00,WUHU21623XXSP,2013-01-29 04:17:00,
2013-01-28 22:22:00,69.6,63.8,29.58,SSE,157,11.0,12.5,82,0.00,,,0.00,WUHU21623XXSP,2013-01-29 04:22:00,
2013-01-28 22:27:00,69.6,63.8,29.58,South,180,11.0,12.5,82,0.00,,,0.00,WUHU21623XXSP,2013-01-29 04:27:00,
2013-01-28 22:32:00,69.6,63.8,29.58,SSE,157,11.9,11.9,82,0.00,,,0.00,WUHU21623XXSP,2013-01-29 04:32:00,
2013-01-28 22:37:00,69.6,63.8,29.58,SSE,157,7.2,11.9,82,0.00,,,0.00,WUHU21623XXSP,2013-01-29 04:37:00,
2013-01-28 22:42:00,69.6,63.8,29.58,SSE,157,21.5,21.5,82,0.00,,,0.00,WUHU21623XXSP,2013-01-29 04:42:00,
2013-01-28 22:47:00,69.6,63.8,29.58,SSE,157,7.8,21.5,82,0.00,,,0.00,WUHU21623XXSP,2013-01-29 04:47:00,
2013-01-28 22:52:00,69.6,64.2,29.58,SSE,157,12.8,12.8,83,0.00,,,0.00,WUHU21623XXSP,2013-01-29 04:52:00,
2013-01-28 22:57:00,69.6,64.2,29.58,South,180,15.0,15.0,83,0.00,,,0.00,WUHU21623XXSP,2013-01-29 04:57:00,
2013-01-28 23:02:00,69.6,64.2,29.58,SSE,157,6.9,15.0,83,0.00,,,0.00,WUHU21623XXSP,2013-01-29 05:02:00,
2013-01-28 23:07:00,69.6,64.2,29.58,SSE,157,7.4,13.6,83,0.00,,,0.00,WUHU21623XXSP,2013-01-29 05:07:00,
2013-01-28 23:12:00,69.6,64.2,29.57,South,180,7.2,14.3,83,0.00,,,0.00,WUHU21623XXSP,2013-01-29 05:12:00,
2013-01-28 23:17:00,69.6,64.2,29.57,SSW,202,4.0,14.3,83,0.00,,,0.00,WUHU21623XXSP,2013-01-29 05:17:00,
2013-01-28 23:22:00,69.6,64.2,29.57,South,180,15.4,17.0,83,0.00,,,0.00,WUHU21623XXSP,2013-01-29 05:22:00,
2013-01-28 23:27:00,69.6,64.2,29.57,SSE,157,8.3,18.6,83,0.00,,,0.00,WUHU21623XXSP,2013-01-29 05:27:00,
2013-01-28 23:32:00,69.6,64.2,29.56,SE,135,9.6,18.6,83,0.00,,,0.00,WUHU21623XXSP,2013-01-29 05:32:00,
2013-01-28 23:37:00,69.6,64.2,29.56,South,180,5.1,11.9,83,0.00,,,0.00,WUHU21623XXSP,2013-01-29 05:37:00,
2013-01-28 23:42:00,69.6,64.2,29.56,SSE,157,5.8,11.9,83,0.00,,,0.00,WUHU21623XXSP,2013-01-29 05:42:00,
2013-01-28 23:47:00,69.4,64.0,29.56,South,180,11.4,11.4,83,0.00,,,0.00,WUHU21623XXSP,2013-01-29 05:47:00,
2013-01-28 23:52:00,69.4,64.3,29.57,SSW,202,13.6,17.2,84,0.00,,,0.00,WUHU21623XXSP,2013-01-29 05:52:00,
2013-01-28 23:57:00,69.4,64.3,29.57,South,180,11.9,17.2,84,0.00,,,0.00,WUHU21623XXSP,2013-01-29 05:57:00,